Time,TemperatureF,DewpointF,PressureIn,WindDirection,WindDirectionDegrees,WindSpeedMPH,WindSpeedGustMPH,Humidity,HourlyPrecipIn,Conditions,Clouds,dailyrainin,SoftwareType,DateUTC
2013-09-01 00:01:00,64.4,63.9,28.18,North,0,0.0,1.0,98,0.00,,,0.14,meteohub,2013-09-01 04:01:00,
2013-09-01 00:02:00,64.4,63.9,28.18,North,0,0.0,1.0,98,0.00,,,0.14,meteohub,2013-09-01 04:02:00,
2013-09-01 00:06:00,64.4,63.9,28.18,North,0,0.0,1.0,98,0.00,,,0.00,meteohub,2013-09-01 04:06:00,
2013-09-01 00:11:00,64.6,64.0,28.18,NNW,338,1.0,1.0,98,0.00,,,0.00,meteohub,2013-09-01 04:11:00,
2013-09-01 00:16:00,64.6,64.0,28.19,North,0,0.0,1.0,98,0.00,,,0.00,meteohub,2013-09-01 04:16:00,
2013-09-01 00:21:00,64.4,63.9,28.18,North,0,0.0,1.0,98,0.00,,,0.00,meteohub,2013-09-01 04:21:00,
2013-09-01 00:26:00,64.4,63.9,28.18,NW,315,0.0,1.0,98,0.00,,,0.00,meteohub,2013-09-01 04:26:00,
2013-09-01 00:31:00,64.4,63.9,28.18,NW,315,0.0,1.0,98,0.00,,,0.00,meteohub,2013-09-01 04:31:00,
2013-09-01 00:36:00,64.4,63.9,28.19,North,0,0.0,1.0,98,0.00,,,0.00,meteohub,2013-09-01 04:36:00,
2013-09-01 00:41:00,64.4,63.9,28.19,West,270,0.0,1.0,98,0.00,,,0.00,meteohub,2013-09-01 04:41:00,
2013-09-01 00:46:00,64.2,63.3,28.19,NW,315,0.0,1.0,97,0.00,,,0.00,meteohub,2013-09-01 04:46:00,
2013-09-01 00:51:00,64.4,63.9,28.19,NNW,338,0.0,1.0,98,0.00,,,0.00,meteohub,2013-09-01 04:51:00,
2013-09-01 00:56:00,64.4,63.9,28.19,North,0,0.0,1.0,98,0.00,,,0.00,meteohub,2013-09-01 04:56:00,
2013-09-01 01:02:00,64.2,63.3,28.19,North,0,0.0,1.0,97,0.00,,,0.00,meteohub,2013-09-01 05:02:00,
2013-09-01 01:07:00,64.2,63.3,28.18,North,0,1.0,1.0,97,0.00,,,0.00,meteohub,2013-09-01 05:07:00,
2013-09-01 01:12:00,64.0,63.1,28.18,North,0,0.0,1.0,97,0.00,,,0.00,meteohub,2013-09-01 05:12:00,
2013-09-01 01:17:00,63.9,63.0,28.18,North,0,0.0,1.0,97,0.00,,,0.00,meteohub,2013-09-01 05:17:00,
2013-09-01 01:22:00,63.9,63.0,28.18,North,0,1.0,1.0,97,0.00,,,0.00,meteohub,2013-09-01 05:22:00,
2013-09-01 01:27:00,63.7,62.8,28.17,NW,315,0.0,1.0,97,0.00,,,0.00,meteohub,2013-09-01 05:27:00,
2013-09-01 01:32:00,63.7,62.8,28.17,NW,315,5.0,5.0,97,0.00,,,0.00,meteohub,2013-09-01 05:32:00,
2013-09-01 01:37:00,63.5,62.6,28.17,North,0,3.0,6.0,97,0.00,,,0.00,meteohub,2013-09-01 05:37:00,
2013-09-01 01:42:00,63.5,62.6,28.17,NW,315,2.0,6.0,97,0.00,,,0.00,meteohub,2013-09-01 05:42:00,
2013-09-01 01:47:00,63.5,62.6,28.18,East,90,2.0,6.0,97,0.00,,,0.00,meteohub,2013-09-01 05:47:00,
2013-09-01 01:53:00,63.5,62.6,28.17,East,90,1.0,4.0,97,0.00,,,0.00,meteohub,2013-09-01 05:53:00,
2013-09-01 01:58:00,63.5,62.6,28.18,South,180,1.0,4.0,97,0.00,,,0.00,meteohub,2013-09-01 05:58:00,
2013-09-01 02:03:00,63.5,62.6,28.18,SE,135,1.0,2.0,97,0.00,,,0.00,meteohub,2013-09-01 06:03:00,
2013-09-01 02:08:00,63.5,62.6,28.19,East,90,2.0,4.0,97,0.00,,,0.00,meteohub,2013-09-01 06:08:00,
2013-09-01 02:13:00,63.7,62.8,28.18,NE,45,2.0,4.0,97,0.00,,,0.00,meteohub,2013-09-01 06:13:00,
2013-09-01 02:18:00,63.5,62.6,28.19,North,0,2.0,4.0,97,0.00,,,0.00,meteohub,2013-09-01 06:18:00,
2013-09-01 02:23:00,63.5,62.6,28.19,NW,315,0.0,4.0,97,0.00,,,0.00,meteohub,2013-09-01 06:23:00,
2013-09-01 02:28:00,63.3,62.4,28.18,South,180,2.0,3.0,97,0.00,,,0.00,meteohub,2013-09-01 06:28:00,
2013-09-01 02:33:00,63.3,62.4,28.18,South,180,0.0,3.0,97,0.00,,,0.00,meteohub,2013-09-01 06:33:00,
2013-09-01 02:38:00,63.3,62.4,28.18,South,180,0.0,2.0,97,0.00,,,0.00,meteohub,2013-09-01 06:38:00,
2013-09-01 02:43:00,63.3,62.4,28.18,East,90,0.0,2.0,97,0.00,,,0.00,meteohub,2013-09-01 06:43:00,
2013-09-01 02:48:00,63.3,62.4,28.18,SE,135,1.0,2.0,97,0.00,,,0.00,meteohub,2013-09-01 06:48:00,
2013-09-01 02:53:00,63.3,62.4,28.18,South,180,0.0,2.0,97,0.00,,,0.00,meteohub,2013-09-01 06:53:00,
2013-09-01 02:58:00,63.3,62.4,28.18,East,90,0.0,2.0,97,0.00,,,0.00,meteohub,2013-09-01 06:58:00,
2013-09-01 03:03:00,63.1,62.2,28.19,SE,135,2.0,2.0,97,0.00,,,0.00,meteohub,2013-09-01 07:03:00,
2013-09-01 03:09:00,63.1,62.2,28.18,South,180,2.0,2.0,97,0.00,,,0.00,meteohub,2013-09-01 07:09:00,
2013-09-01 03:14:00,63.1,62.2,28.18,SW,225,2.0,2.0,97,0.00,,,0.00,meteohub,2013-09-01 07:14:00,
2013-09-01 03:19:00,63.1,62.2,28.18,South,180,2.0,3.0,97,0.00,,,0.00,meteohub,2013-09-01 07:19:00,
2013-09-01 03:24:00,63.1,62.2,28.18,East,90,1.0,3.0,97,0.00,,,0.00,meteohub,2013-09-01 07:24:00,
2013-09-01 03:29:00,63.0,62.1,28.18,South,180,2.0,3.0,97,0.00,,,0.00,meteohub,2013-09-01 07:29:00,
2013-09-01 03:34:00,63.0,62.1,28.18,East,90,0.0,2.0,97,0.00,,,0.00,meteohub,2013-09-01 07:34:00,
2013-09-01 03:39:00,63.1,62.2,28.18,East,90,0.0,2.0,97,0.00,,,0.00,meteohub,2013-09-01 07:39:00,
2013-09-01 03:44:00,63.0,62.1,28.18,South,180,2.0,2.0,97,0.00,,,0.00,meteohub,2013-09-01 07:44:00,
2013-09-01 03:49:00,63.0,62.1,28.18,SE,135,0.0,2.0,97,0.00,,,0.00,meteohub,2013-09-01 07:49:00,
2013-09-01 03:54:00,63.0,62.1,28.18,SE,135,0.0,2.0,97,0.00,,,0.00,meteohub,2013-09-01 07:54:00,
2013-09-01 03:59:00,63.0,62.1,28.18,South,180,1.0,2.0,97,0.00,,,0.00,meteohub,2013-09-01 07:59:00,
2013-09-01 04:04:00,63.0,62.1,28.18,SE,135,0.0,2.0,97,0.00,,,0.00,meteohub,2013-09-01 08:04:00,
2013-09-01 04:09:00,63.0,62.1,28.18,East,90,2.0,2.0,97,0.00,,,0.00,meteohub,2013-09-01 08:09:00,
2013-09-01 04:14:00,63.0,62.1,28.18,NE,45,1.0,2.0,97,0.00,,,0.00,meteohub,2013-09-01 08:14:00,
2013-09-01 04:19:00,62.8,61.9,28.18,NE,45,0.0,2.0,97,0.00,,,0.00,meteohub,2013-09-01 08:19:00,
2013-09-01 04:24:00,62.8,61.9,28.18,South,180,3.0,3.0,97,0.00,,,0.00,meteohub,2013-09-01 08:24:00,
2013-09-01 04:30:00,62.6,61.7,28.18,South,180,2.0,3.0,97,0.00,,,0.00,meteohub,2013-09-01 08:30:00,
2013-09-01 04:35:00,62.4,61.9,28.18,South,180,2.0,3.0,98,0.00,,,0.00,meteohub,2013-09-01 08:35:00,
2013-09-01 04:40:00,62.2,61.7,28.18,South,180,2.0,3.0,98,0.00,,,0.00,meteohub,2013-09-01 08:40:00,
2013-09-01 04:45:00,62.2,61.7,28.18,East,90,2.0,3.0,98,0.00,,,0.00,meteohub,2013-09-01 08:45:00,
2013-09-01 04:50:00,62.1,61.5,28.18,SE,135,2.0,2.0,98,0.00,,,0.00,meteohub,2013-09-01 08:50:00,
2013-09-01 04:55:00,62.1,61.5,28.18,South,180,2.0,2.0,98,0.00,,,0.00,meteohub,2013-09-01 08:55:00,
2013-09-01 05:00:00,62.1,61.5,28.19,NE,45,0.0,2.0,98,0.00,,,0.00,meteohub,2013-09-01 09:00:00,
2013-09-01 05:05:00,62.1,61.5,28.18,SW,225,1.0,2.0,98,0.00,,,0.00,meteohub,2013-09-01 09:05:00,
2013-09-01 05:10:00,61.9,61.3,28.19,North,0,2.0,2.0,98,0.00,,,0.00,meteohub,2013-09-01 09:10:00,
2013-09-01 05:15:00,62.1,61.5,28.19,North,0,2.0,2.0,98,0.00,,,0.00,meteohub,2013-09-01 09:15:00,
2013-09-01 05:20:00,62.1,61.5,28.19,North,0,1.0,3.0,98,0.00,,,0.00,meteohub,2013-09-01 09:20:00,
2013-09-01 05:25:00,62.2,61.7,28.19,NE,45,2.0,3.0,98,0.00,,,0.00,meteohub,2013-09-01 09:25:00,
2013-09-01 05:30:00,62.2,61.7,28.19,NE,45,2.0,3.0,98,0.00,,,0.00,meteohub,2013-09-01 09:30:00,
2013-09-01 05:35:00,62.2,61.7,28.19,NE,45,1.0,3.0,98,0.00,,,0.00,meteohub,2013-09-01 09:35:00,
2013-09-01 05:40:00,62.2,61.7,28.20,NE,45,0.0,2.0,98,0.00,,,0.00,meteohub,2013-09-01 09:40:00,
2013-09-01 05:46:00,62.2,61.7,28.19,SW,225,0.0,2.0,98,0.00,,,0.00,meteohub,2013-09-01 09:46:00,
2013-09-01 05:51:00,62.2,61.7,28.19,SW,225,0.0,1.0,98,0.00,,,0.00,meteohub,2013-09-01 09:51:00,
2013-09-01 05:56:00,62.2,61.7,28.20,NE,45,1.0,2.0,98,0.00,,,0.00,meteohub,2013-09-01 09:56:00,
2013-09-01 06:01:00,62.2,61.7,28.20,NE,45,1.0,2.0,98,0.00,,,0.00,meteohub,2013-09-01 10:01:00,
2013-09-01 06:06:00,62.2,61.7,28.20,NE,45,0.0,2.0,98,0.00,,,0.00,meteohub,2013-09-01 10:06:00,
2013-09-01 06:11:00,62.2,61.7,28.20,NE,45,0.0,2.0,98,0.00,,,0.00,meteohub,2013-09-01 10:11:00,
2013-09-01 06:16:00,62.2,61.7,28.20,NE,45,0.0,2.0,98,0.00,,,0.00,meteohub,2013-09-01 10:16:00,
2013-09-01 06:21:00,62.2,61.7,28.20,South,180,2.0,2.0,98,0.00,,,0.00,meteohub,2013-09-01 10:21:00,
2013-09-01 06:26:00,62.2,61.7,28.20,East,90,2.0,2.0,98,0.00,,,0.00,meteohub,2013-09-01 10:26:00,
2013-09-01 06:31:00,62.2,61.7,28.20,SE,135,1.0,2.0,98,0.00,,,0.00,meteohub,2013-09-01 10:31:00,
2013-09-01 06:36:00,62.2,61.7,28.21,SE,135,2.0,3.0,98,0.00,,,0.00,meteohub,2013-09-01 10:36:00,
2013-09-01 06:41:00,62.2,61.7,28.20,SW,225,2.0,3.0,98,0.00,,,0.00,meteohub,2013-09-01 10:41:00,
2013-09-01 06:46:00,62.1,61.5,28.21,SE,135,1.0,3.0,98,0.00,,,0.00,meteohub,2013-09-01 10:46:00,
2013-09-01 06:51:00,62.1,61.5,28.20,SW,225,0.0,2.0,98,0.00,,,0.00,meteohub,2013-09-01 10:51:00,
2013-09-01 06:56:00,61.9,61.3,28.21,ESE,113,1.0,2.0,98,0.00,,,0.00,meteohub,2013-09-01 10:56:00,
2013-09-01 07:01:00,61.9,61.3,28.21,South,180,0.0,2.0,98,0.00,,,0.00,meteohub,2013-09-01 11:01:00,
2013-09-01 07:07:00,61.9,61.3,28.22,North,0,2.0,2.0,98,0.00,,,0.00,meteohub,2013-09-01 11:07:00,
2013-09-01 07:12:00,61.9,61.3,28.22,NE,45,1.0,2.0,98,0.00,,,0.00,meteohub,2013-09-01 11:12:00,
2013-09-01 07:17:00,61.9,61.3,28.22,SE,135,2.0,2.0,98,0.00,,,0.00,meteohub,2013-09-01 11:17:00,
2013-09-01 07:22:00,61.9,61.3,28.22,East,90,0.0,2.0,98,0.00,,,0.00,meteohub,2013-09-01 11:22:00,
2013-09-01 07:27:00,61.9,61.3,28.22,South,180,0.0,2.0,98,0.00,,,0.00,meteohub,2013-09-01 11:27:00,
2013-09-01 07:32:00,62.1,61.5,28.21,SE,135,2.0,2.0,98,0.00,,,0.00,meteohub,2013-09-01 11:32:00,
2013-09-01 07:37:00,62.2,61.7,28.21,South,180,0.0,2.0,98,0.00,,,0.00,meteohub,2013-09-01 11:37:00,
2013-09-01 07:42:00,62.6,61.7,28.21,South,180,2.0,4.0,97,0.00,,,0.00,meteohub,2013-09-01 11:42:00,
2013-09-01 07:47:00,62.6,61.7,28.21,SE,135,2.0,4.0,97,0.00,,,0.00,meteohub,2013-09-01 11:47:00,
2013-09-01 07:52:00,62.8,61.9,28.21,SW,225,2.0,4.0,97,0.00,,,0.00,meteohub,2013-09-01 11:52:00,
2013-09-01 07:57:00,63.0,62.1,28.21,South,180,3.0,4.0,97,0.00,,,0.00,meteohub,2013-09-01 11:57:00,
2013-09-01 08:02:00,63.0,62.1,28.21,South,180,2.0,4.0,97,0.00,,,0.00,meteohub,2013-09-01 12:02:00,
2013-09-01 08:07:00,63.0,62.1,28.21,West,270,2.0,4.0,97,0.00,,,0.00,meteohub,2013-09-01 12:07:00,
2013-09-01 08:12:00,63.3,62.4,28.21,South,180,2.0,3.0,97,0.00,,,0.00,meteohub,2013-09-01 12:12:00,
2013-09-01 08:17:00,63.5,62.6,28.21,South,180,2.0,3.0,97,0.00,,,0.00,meteohub,2013-09-01 12:17:00,
2013-09-01 08:22:00,63.7,62.8,28.20,East,90,4.0,4.0,97,0.01,,,0.01,meteohub,2013-09-01 12:22:00,
2013-09-01 08:27:00,63.9,63.0,28.20,SE,135,4.0,4.0,97,0.01,,,0.01,meteohub,2013-09-01 12:27:00,
2013-09-01 08:32:00,64.0,63.1,28.19,East,90,3.0,4.0,97,0.01,,,0.01,meteohub,2013-09-01 12:32:00,
2013-09-01 08:37:00,64.4,64.0,28.20,SE,135,4.0,4.0,99,0.01,,,0.01,meteohub,2013-09-01 12:37:00,
2013-09-01 08:42:00,64.9,64.6,28.20,South,180,4.0,4.0,99,0.01,,,0.01,meteohub,2013-09-01 12:42:00,
2013-09-01 08:47:00,65.5,65.1,28.20,SE,135,2.0,4.0,99,0.01,,,0.01,meteohub,2013-09-01 12:47:00,
2013-09-01 08:52:00,66.4,66.0,28.20,SE,135,2.0,4.0,99,0.01,,,0.01,meteohub,2013-09-01 12:52:00,
2013-09-01 08:57:00,67.1,66.7,28.20,NE,45,1.0,4.0,99,0.01,,,0.01,meteohub,2013-09-01 12:57:00,
2013-09-01 09:02:00,68.2,67.8,28.20,SW,225,1.0,3.0,99,0.01,,,0.01,meteohub,2013-09-01 13:02:00,
2013-09-01 09:07:00,68.9,68.5,28.20,NE,45,2.0,2.0,99,0.01,,,0.01,meteohub,2013-09-01 13:07:00,
2013-09-01 09:12:00,69.4,69.1,28.19,South,180,2.0,3.0,99,0.01,,,0.01,meteohub,2013-09-01 13:12:00,
2013-09-01 09:17:00,70.3,69.8,28.20,North,0,2.0,3.0,98,0.01,,,0.01,meteohub,2013-09-01 13:17:00,
2013-09-01 09:22:00,71.1,70.5,28.20,NE,45,2.0,3.0,98,0.00,,,0.01,meteohub,2013-09-01 13:22:00,
2013-09-01 09:27:00,72.0,71.1,28.20,SE,135,0.0,2.0,97,0.00,,,0.01,meteohub,2013-09-01 13:27:00,
2013-09-01 09:32:00,72.9,72.0,28.20,NE,45,4.0,4.0,97,0.00,,,0.01,meteohub,2013-09-01 13:32:00,
2013-09-01 09:37:00,71.8,70.9,28.20,NW,315,4.0,4.0,97,0.00,,,0.01,meteohub,2013-09-01 13:37:00,
2013-09-01 09:42:00,72.1,71.2,28.20,North,0,3.0,6.0,97,0.00,,,0.01,meteohub,2013-09-01 13:42:00,
2013-09-01 09:47:00,72.3,70.5,28.20,North,0,6.0,6.0,94,0.00,,,0.01,meteohub,2013-09-01 13:47:00,
2013-09-01 09:52:00,72.3,68.9,28.20,NE,45,5.0,6.0,89,0.00,,,0.01,meteohub,2013-09-01 13:52:00,
2013-09-01 09:57:00,72.3,67.8,28.20,North,0,3.0,6.0,86,0.00,,,0.01,meteohub,2013-09-01 13:57:00,
2013-09-01 10:02:00,73.0,68.5,28.20,North,0,5.0,6.0,86,0.00,,,0.01,meteohub,2013-09-01 14:02:00,
2013-09-01 10:07:00,73.4,68.5,28.20,North,0,3.0,5.0,85,0.00,,,0.01,meteohub,2013-09-01 14:07:00,
2013-09-01 10:12:00,73.4,68.5,28.20,North,0,2.0,5.0,85,0.00,,,0.01,meteohub,2013-09-01 14:12:00,
2013-09-01 10:17:00,73.2,68.2,28.20,North,0,2.0,5.0,84,0.00,,,0.01,meteohub,2013-09-01 14:17:00,
2013-09-01 10:22:00,73.0,68.0,28.20,SE,135,1.0,4.0,84,0.00,,,0.01,meteohub,2013-09-01 14:22:00,
2013-09-01 10:27:00,73.0,68.2,28.20,NE,45,2.0,4.0,85,0.00,,,0.01,meteohub,2013-09-01 14:27:00,
2013-09-01 10:32:00,73.2,68.4,28.20,NE,45,0.0,4.0,85,0.00,,,0.01,meteohub,2013-09-01 14:32:00,
2013-09-01 10:37:00,73.4,68.9,28.20,NE,45,0.0,4.0,86,0.00,,,0.01,meteohub,2013-09-01 14:37:00,
2013-09-01 10:42:00,73.4,68.9,28.20,SE,135,0.0,3.0,86,0.00,,,0.01,meteohub,2013-09-01 14:42:00,
2013-09-01 10:47:00,73.4,68.9,28.20,NE,45,1.0,2.0,86,0.00,,,0.01,meteohub,2013-09-01 14:47:00,
2013-09-01 10:52:00,74.5,70.0,28.20,North,0,2.0,2.0,86,0.00,,,0.01,meteohub,2013-09-01 14:52:00,
2013-09-01 10:57:00,75.0,70.2,28.20,SW,225,0.0,3.0,85,0.00,,,0.01,meteohub,2013-09-01 14:57:00,
2013-09-01 11:02:00,75.0,70.2,28.20,SE,135,0.0,3.0,85,0.00,,,0.01,meteohub,2013-09-01 15:02:00,
2013-09-01 11:07:00,75.2,70.0,28.20,North,0,2.0,3.0,84,0.00,,,0.01,meteohub,2013-09-01 15:07:00,
2013-09-01 11:12:00,75.6,70.0,28.20,North,0,0.0,2.0,83,0.00,,,0.01,meteohub,2013-09-01 15:12:00,
2013-09-01 11:17:00,75.7,70.5,28.20,NE,45,1.0,2.0,84,0.00,,,0.01,meteohub,2013-09-01 15:17:00,
2013-09-01 11:22:00,75.7,70.2,28.19,NW,315,2.0,2.0,83,0.00,,,0.01,meteohub,2013-09-01 15:22:00,
2013-09-01 11:27:00,75.4,69.8,28.20,NW,315,1.0,2.0,83,0.00,,,0.01,meteohub,2013-09-01 15:27:00,
2013-09-01 11:32:00,75.6,70.0,28.20,West,270,1.0,2.0,83,0.00,,,0.01,meteohub,2013-09-01 15:32:00,
2013-09-01 11:37:00,75.6,70.0,28.19,South,180,4.0,4.0,83,0.00,,,0.01,meteohub,2013-09-01 15:37:00,
2013-09-01 11:42:00,76.6,70.7,28.19,SE,135,4.0,4.0,82,0.00,,,0.01,meteohub,2013-09-01 15:42:00,
2013-09-01 11:47:00,77.4,69.3,28.19,North,0,3.0,6.0,76,0.00,,,0.01,meteohub,2013-09-01 15:47:00,
2013-09-01 11:52:00,78.6,70.0,28.19,South,180,5.0,6.0,75,0.00,,,0.01,meteohub,2013-09-01 15:52:00,
2013-09-01 11:57:00,78.4,69.1,28.19,SE,135,2.0,6.0,73,0.00,,,0.01,meteohub,2013-09-01 15:57:00,
2013-09-01 12:02:00,77.7,68.7,28.19,South,180,2.0,6.0,74,0.00,,,0.01,meteohub,2013-09-01 16:02:00,
2013-09-01 12:07:00,77.4,68.9,28.19,NW,315,2.0,7.0,75,0.00,,,0.01,meteohub,2013-09-01 16:07:00,
2013-09-01 12:12:00,77.0,68.9,28.19,SE,135,3.0,7.0,76,0.00,,,0.01,meteohub,2013-09-01 16:12:00,
2013-09-01 12:17:00,76.3,68.9,28.19,South,180,3.0,7.0,78,0.00,,,0.01,meteohub,2013-09-01 16:17:00,
2013-09-01 12:22:00,75.7,69.1,28.19,South,180,2.0,7.0,80,0.00,,,0.01,meteohub,2013-09-01 16:22:00,
2013-09-01 12:27:00,75.6,68.9,28.19,SE,135,2.0,7.0,80,0.00,,,0.01,meteohub,2013-09-01 16:27:00,
2013-09-01 12:32:00,75.4,69.1,28.19,South,180,2.0,7.0,81,0.00,,,0.01,meteohub,2013-09-01 16:32:00,
2013-09-01 12:37:00,75.6,69.6,28.19,North,0,2.0,7.0,82,0.00,,,0.01,meteohub,2013-09-01 16:37:00,
2013-09-01 12:42:00,76.3,70.3,28.18,SE,135,2.0,4.0,82,0.00,,,0.01,meteohub,2013-09-01 16:42:00,
2013-09-01 12:47:00,76.8,70.9,28.19,North,0,1.0,4.0,82,0.00,,,0.01,meteohub,2013-09-01 16:47:00,
2013-09-01 12:52:00,77.2,70.2,28.19,East,90,2.0,3.0,79,0.00,,,0.01,meteohub,2013-09-01 16:52:00,
2013-09-01 12:57:00,76.6,69.3,28.19,SW,225,2.0,4.0,78,0.00,,,0.01,meteohub,2013-09-01 16:57:00,
2013-09-01 13:02:00,76.3,69.3,28.19,NE,45,2.0,4.0,79,0.00,,,0.01,meteohub,2013-09-01 17:02:00,
2013-09-01 13:07:00,75.9,68.9,28.20,NW,315,1.0,4.0,79,0.00,,,0.01,meteohub,2013-09-01 17:07:00,
2013-09-01 13:12:00,75.0,69.1,28.20,East,90,2.0,4.0,82,0.00,,,0.01,meteohub,2013-09-01 17:12:00,
2013-09-01 13:17:00,74.7,69.1,28.20,SE,135,3.0,4.0,83,0.00,,,0.01,meteohub,2013-09-01 17:17:00,
2013-09-01 13:22:00,74.1,68.9,28.19,SW,225,2.0,4.0,84,0.01,,,0.02,meteohub,2013-09-01 17:22:00,
2013-09-01 13:27:00,73.8,68.9,28.20,SE,135,1.0,4.0,85,0.02,,,0.04,meteohub,2013-09-01 17:27:00,
2013-09-01 13:32:00,73.2,69.1,28.20,SE,135,3.0,4.0,87,0.06,,,0.07,meteohub,2013-09-01 17:32:00,
2013-09-01 13:37:00,72.7,68.9,28.19,SE,135,2.0,4.0,88,0.11,,,0.12,meteohub,2013-09-01 17:37:00,
2013-09-01 13:42:00,72.5,69.1,28.19,South,180,1.0,4.0,89,0.11,,,0.12,meteohub,2013-09-01 17:42:00,
2013-09-01 13:47:00,72.5,69.1,28.19,SW,225,2.0,4.0,89,0.11,,,0.12,meteohub,2013-09-01 17:47:00,
2013-09-01 13:52:00,72.5,69.4,28.18,SE,135,0.0,3.0,90,0.11,,,0.12,meteohub,2013-09-01 17:52:00,
2013-09-01 13:57:00,72.7,69.6,28.19,East,90,2.0,2.0,90,0.11,,,0.12,meteohub,2013-09-01 17:57:00,
2013-09-01 14:02:00,72.7,70.0,28.19,East,90,2.0,2.0,91,0.11,,,0.12,meteohub,2013-09-01 18:02:00,
2013-09-01 14:07:00,73.0,70.3,28.18,East,90,3.0,3.0,91,0.12,,,0.13,meteohub,2013-09-01 18:07:00,
2013-09-01 14:12:00,73.8,71.6,28.19,SW,225,2.0,4.0,93,0.12,,,0.13,meteohub,2013-09-01 18:12:00,
2013-09-01 14:17:00,74.3,72.1,28.19,SE,135,4.0,4.0,93,0.12,,,0.13,meteohub,2013-09-01 18:17:00,
2013-09-01 14:22:00,74.3,71.2,28.19,SE,135,5.0,6.0,90,0.11,,,0.13,meteohub,2013-09-01 18:22:00,
2013-09-01 14:27:00,74.5,71.1,28.18,SW,225,4.0,6.0,89,0.09,,,0.13,meteohub,2013-09-01 18:27:00,
2013-09-01 14:32:00,74.1,70.3,28.18,East,90,2.0,6.0,88,0.06,,,0.13,meteohub,2013-09-01 18:32:00,
2013-09-01 14:37:00,73.9,70.2,28.17,SE,135,5.0,6.0,88,0.01,,,0.13,meteohub,2013-09-01 18:37:00,
2013-09-01 14:42:00,73.9,70.2,28.18,SE,135,2.0,6.0,88,0.01,,,0.13,meteohub,2013-09-01 18:42:00,
2013-09-01 14:47:00,74.1,70.3,28.18,East,90,2.0,7.0,88,0.01,,,0.13,meteohub,2013-09-01 18:47:00,
2013-09-01 14:52:00,74.5,70.7,28.18,South,180,3.0,7.0,88,0.01,,,0.13,meteohub,2013-09-01 18:52:00,
2013-09-01 14:57:00,74.5,70.7,28.18,South,180,6.0,7.0,88,0.01,,,0.13,meteohub,2013-09-01 18:57:00,
2013-09-01 15:02:00,74.7,70.5,28.18,ENE,68,4.0,6.0,87,0.01,,,0.13,meteohub,2013-09-01 19:02:00,
2013-09-01 15:07:00,75.4,70.9,28.18,South,180,3.0,6.0,86,0.00,,,0.13,meteohub,2013-09-01 19:07:00,
2013-09-01 15:12:00,75.7,70.9,28.18,SE,135,2.0,6.0,85,0.00,,,0.13,meteohub,2013-09-01 19:12:00,
2013-09-01 15:17:00,76.3,71.4,28.17,East,90,2.0,4.0,85,0.00,,,0.13,meteohub,2013-09-01 19:17:00,
2013-09-01 15:22:00,76.8,71.2,28.18,SE,135,2.0,4.0,83,0.00,,,0.13,meteohub,2013-09-01 19:22:00,
2013-09-01 15:27:00,76.8,71.2,28.17,SW,225,4.0,4.0,83,0.00,,,0.13,meteohub,2013-09-01 19:27:00,
2013-09-01 15:32:00,77.0,71.1,28.17,East,90,3.0,4.0,82,0.00,,,0.13,meteohub,2013-09-01 19:32:00,
2013-09-01 15:37:00,77.2,71.2,28.17,East,90,3.0,4.0,82,0.00,,,0.13,meteohub,2013-09-01 19:37:00,
2013-09-01 15:42:00,77.0,70.7,28.17,SE,135,2.0,5.0,81,0.00,,,0.13,meteohub,2013-09-01 19:42:00,
2013-09-01 15:47:00,76.6,70.7,28.17,East,90,4.0,8.0,82,0.00,,,0.13,meteohub,2013-09-01 19:47:00,
2013-09-01 15:52:00,77.0,70.7,28.16,NE,45,4.0,8.0,81,0.00,,,0.13,meteohub,2013-09-01 19:52:00,
2013-09-01 15:57:00,77.9,71.2,28.16,SW,225,3.0,8.0,80,0.00,,,0.13,meteohub,2013-09-01 19:57:00,
2013-09-01 16:02:00,77.9,70.2,28.17,South,180,4.0,6.0,77,0.00,,,0.13,meteohub,2013-09-01 20:02:00,
2013-09-01 16:08:00,77.5,69.8,28.17,South,180,5.0,6.0,77,0.00,,,0.13,meteohub,2013-09-01 20:08:00,
2013-09-01 16:13:00,77.5,69.8,28.17,South,180,2.0,6.0,77,0.00,,,0.13,meteohub,2013-09-01 20:13:00,
2013-09-01 16:18:00,77.5,70.2,28.17,SE,135,5.0,6.0,78,0.00,,,0.13,meteohub,2013-09-01 20:18:00,
2013-09-01 16:23:00,77.0,68.5,28.17,NE,45,3.0,6.0,75,0.00,,,0.13,meteohub,2013-09-01 20:23:00,
2013-09-01 16:28:00,76.6,69.3,28.17,SE,135,5.0,6.0,78,0.00,,,0.13,meteohub,2013-09-01 20:28:00,
2013-09-01 16:33:00,75.7,68.7,28.17,South,180,2.0,5.0,79,0.00,,,0.13,meteohub,2013-09-01 20:33:00,
2013-09-01 16:38:00,75.2,68.5,28.17,SE,135,4.0,5.0,80,0.00,,,0.13,meteohub,2013-09-01 20:38:00,
2013-09-01 16:43:00,75.0,69.1,28.17,South,180,2.0,6.0,82,0.00,,,0.13,meteohub,2013-09-01 20:43:00,
2013-09-01 16:48:00,74.7,68.7,28.17,South,180,2.0,6.0,82,0.00,,,0.13,meteohub,2013-09-01 20:48:00,
2013-09-01 16:53:00,74.3,68.7,28.18,SE,135,2.0,6.0,83,0.00,,,0.13,meteohub,2013-09-01 20:53:00,
2013-09-01 16:58:00,73.8,68.5,28.17,West,270,2.0,6.0,84,0.00,,,0.13,meteohub,2013-09-01 20:58:00,
2013-09-01 17:03:00,73.0,68.2,28.17,West,270,2.0,6.0,85,0.00,,,0.13,meteohub,2013-09-01 21:03:00,
2013-09-01 17:08:00,72.7,68.5,28.17,NW,315,2.0,2.0,87,0.01,,,0.14,meteohub,2013-09-01 21:08:00,
2013-09-01 17:13:00,72.5,68.7,28.18,NW,315,2.0,2.0,88,0.01,,,0.14,meteohub,2013-09-01 21:13:00,
2013-09-01 17:18:00,72.3,68.5,28.17,SE,135,3.0,3.0,88,0.02,,,0.15,meteohub,2013-09-01 21:18:00,
2013-09-01 17:24:00,72.1,69.1,28.17,South,180,1.0,4.0,90,0.06,,,0.19,meteohub,2013-09-01 21:24:00,
2013-09-01 17:29:00,72.3,69.6,28.17,East,90,2.0,4.0,91,0.07,,,0.20,meteohub,2013-09-01 21:29:00,
2013-09-01 17:34:00,72.3,69.6,28.16,NE,45,1.0,4.0,91,0.07,,,0.20,meteohub,2013-09-01 21:34:00,
2013-09-01 17:39:00,72.3,69.6,28.17,SW,225,2.0,4.0,91,0.07,,,0.20,meteohub,2013-09-01 21:39:00,
2013-09-01 17:44:00,72.5,69.8,28.17,SW,225,0.0,3.0,91,0.07,,,0.20,meteohub,2013-09-01 21:44:00,
2013-09-01 17:49:00,72.5,70.0,28.17,East,90,1.0,3.0,92,0.07,,,0.20,meteohub,2013-09-01 21:49:00,
2013-09-01 17:54:00,72.7,70.2,28.17,SE,135,2.0,2.0,92,0.07,,,0.20,meteohub,2013-09-01 21:54:00,
2013-09-01 17:59:00,72.7,70.2,28.17,East,90,2.0,2.0,92,0.07,,,0.20,meteohub,2013-09-01 21:59:00,
2013-09-01 18:04:00,72.9,70.3,28.17,SE,135,1.0,3.0,92,0.07,,,0.20,meteohub,2013-09-01 22:04:00,
2013-09-01 18:09:00,72.9,70.3,28.18,SE,135,0.0,3.0,92,0.06,,,0.20,meteohub,2013-09-01 22:09:00,
2013-09-01 18:14:00,72.7,70.2,28.18,SE,135,0.0,3.0,92,0.06,,,0.20,meteohub,2013-09-01 22:14:00,
2013-09-01 18:19:00,72.7,70.2,28.18,NE,45,1.0,2.0,92,0.05,,,0.20,meteohub,2013-09-01 22:19:00,
2013-09-01 18:24:00,72.5,70.0,28.18,SW,225,2.0,2.0,92,0.01,,,0.20,meteohub,2013-09-01 22:24:00,
2013-09-01 18:29:00,72.3,69.8,28.18,South,180,0.0,2.0,92,0.00,,,0.20,meteohub,2013-09-01 22:29:00,
2013-09-01 18:34:00,72.1,69.6,28.18,SE,135,1.0,2.0,92,0.00,,,0.20,meteohub,2013-09-01 22:34:00,
2013-09-01 18:39:00,71.6,68.9,28.18,West,270,1.0,2.0,91,0.00,,,0.20,meteohub,2013-09-01 22:39:00,
2013-09-01 18:45:00,71.1,68.5,28.18,East,90,2.0,2.0,92,0.00,,,0.20,meteohub,2013-09-01 22:45:00,
2013-09-01 18:50:00,70.9,68.4,28.17,SW,225,2.0,2.0,92,0.00,,,0.20,meteohub,2013-09-01 22:50:00,
2013-09-01 18:55:00,70.7,68.2,28.17,West,270,1.0,2.0,92,0.00,,,0.20,meteohub,2013-09-01 22:55:00,
2013-09-01 19:00:00,70.5,68.0,28.17,SE,135,2.0,2.0,92,0.00,,,0.20,meteohub,2013-09-01 23:00:00,
2013-09-01 19:05:00,70.3,68.2,28.17,East,90,1.0,2.0,93,0.00,,,0.20,meteohub,2013-09-01 23:05:00,
2013-09-01 19:10:00,70.0,67.8,28.17,NW,315,1.0,2.0,93,0.00,,,0.20,meteohub,2013-09-01 23:10:00,
2013-09-01 19:15:00,69.8,67.6,28.17,North,0,1.0,2.0,93,0.00,,,0.20,meteohub,2013-09-01 23:15:00,
2013-09-01 19:20:00,69.6,67.8,28.17,SW,225,1.0,2.0,94,0.00,,,0.20,meteohub,2013-09-01 23:20:00,
2013-09-01 19:25:00,69.4,67.6,28.17,South,180,0.0,3.0,94,0.00,,,0.20,meteohub,2013-09-01 23:25:00,
2013-09-01 19:30:00,69.4,67.6,28.18,West,270,0.0,3.0,94,0.00,,,0.20,meteohub,2013-09-01 23:30:00,
2013-09-01 19:35:00,69.4,67.6,28.19,SW,225,2.0,3.0,94,0.00,,,0.20,meteohub,2013-09-01 23:35:00,
2013-09-01 19:40:00,69.6,68.2,28.18,South,180,2.0,3.0,95,0.00,,,0.20,meteohub,2013-09-01 23:40:00,
2013-09-01 19:45:00,69.4,68.0,28.18,SE,135,0.0,3.0,95,0.00,,,0.20,meteohub,2013-09-01 23:45:00,
2013-09-01 19:50:00,69.4,68.0,28.18,East,90,2.0,3.0,95,0.00,,,0.20,meteohub,2013-09-01 23:50:00,
2013-09-01 19:55:00,69.3,67.8,28.18,SE,135,1.0,2.0,95,0.00,,,0.20,meteohub,2013-09-01 23:55:00,
2013-09-01 20:01:00,69.3,67.8,28.18,SE,135,0.0,2.0,95,0.00,,,0.20,meteohub,2013-09-02 00:01:00,
2013-09-01 20:06:00,69.1,67.6,28.18,SW,225,2.0,2.0,95,0.00,,,0.20,meteohub,2013-09-02 00:06:00,
2013-09-01 20:11:00,69.1,67.6,28.18,South,180,1.0,2.0,95,0.00,,,0.20,meteohub,2013-09-02 00:11:00,
2013-09-01 20:16:00,68.9,67.5,28.17,SE,135,2.0,2.0,95,0.00,,,0.20,meteohub,2013-09-02 00:16:00,
2013-09-01 20:21:00,68.9,67.5,28.17,SE,135,0.0,2.0,95,0.00,,,0.20,meteohub,2013-09-02 00:21:00,
2013-09-01 20:26:00,68.9,67.6,28.18,South,180,1.0,2.0,96,0.00,,,0.20,meteohub,2013-09-02 00:26:00,
2013-09-01 20:31:00,68.7,67.5,28.18,South,180,2.0,2.0,96,0.00,,,0.20,meteohub,2013-09-02 00:31:00,
2013-09-01 20:36:00,68.7,67.5,28.17,South,180,0.0,2.0,96,0.00,,,0.20,meteohub,2013-09-02 00:36:00,
2013-09-01 20:41:00,68.7,67.5,28.18,SE,135,2.0,2.0,96,0.00,,,0.20,meteohub,2013-09-02 00:41:00,
2013-09-01 20:46:00,68.5,67.3,28.18,SE,135,1.0,2.0,96,0.00,,,0.20,meteohub,2013-09-02 00:46:00,
2013-09-01 20:51:00,68.5,67.3,28.18,SW,225,2.0,2.0,96,0.00,,,0.20,meteohub,2013-09-02 00:51:00,
2013-09-01 20:56:00,68.5,9.9,28.18,South,180,2.0,3.0,10,0.00,,,0.20,meteohub,2013-09-02 00:56:00,
2013-09-01 21:01:00,68.7,67.5,28.18,South,180,1.0,3.0,96,0.00,,,0.20,meteohub,2013-09-02 01:01:00,
2013-09-01 21:06:00,68.7,67.5,28.18,SE,135,2.0,5.0,96,0.00,,,0.20,meteohub,2013-09-02 01:06:00,
2013-09-01 21:11:00,68.7,67.8,28.18,East,90,2.0,5.0,97,0.00,,,0.20,meteohub,2013-09-02 01:11:00,
2013-09-01 21:17:00,68.7,67.8,28.18,West,270,2.0,5.0,97,0.00,,,0.20,meteohub,2013-09-02 01:17:00,
2013-09-01 21:22:00,68.7,67.8,28.18,SW,225,1.0,5.0,97,0.00,,,0.20,meteohub,2013-09-02 01:22:00,
2013-09-01 21:27:00,68.7,67.8,28.18,East,90,2.0,2.0,97,0.00,,,0.20,meteohub,2013-09-02 01:27:00,
2013-09-01 21:32:00,68.9,68.0,28.18,SW,225,1.0,2.0,97,0.00,,,0.20,meteohub,2013-09-02 01:32:00,
2013-09-01 21:37:00,68.9,68.0,28.19,West,270,1.0,2.0,97,0.00,,,0.20,meteohub,2013-09-02 01:37:00,
2013-09-01 21:42:00,68.9,68.0,28.19,West,270,0.0,2.0,97,0.00,,,0.20,meteohub,2013-09-02 01:42:00,
2013-09-01 21:47:00,69.1,68.2,28.19,West,270,1.0,1.0,97,0.00,,,0.20,meteohub,2013-09-02 01:47:00,
2013-09-01 21:52:00,69.1,68.2,28.18,SW,225,0.0,2.0,97,0.00,,,0.20,meteohub,2013-09-02 01:52:00,
2013-09-01 21:57:00,69.1,68.2,28.19,SW,225,0.0,2.0,97,0.00,,,0.20,meteohub,2013-09-02 01:57:00,
2013-09-01 22:02:00,68.9,68.0,28.19,North,0,0.0,2.0,97,0.00,,,0.20,meteohub,2013-09-02 02:02:00,
2013-09-01 22:07:00,68.9,68.0,28.19,North,0,0.0,2.0,97,0.00,,,0.20,meteohub,2013-09-02 02:07:00,
2013-09-01 22:12:00,68.9,68.0,28.19,NE,45,0.0,2.0,97,0.00,,,0.20,meteohub,2013-09-02 02:12:00,
2013-09-01 22:17:00,68.9,68.0,28.19,SE,135,0.0,2.0,97,0.00,,,0.20,meteohub,2013-09-02 02:17:00,
2013-09-01 22:22:00,68.9,68.0,28.18,West,270,0.0,0.0,97,0.00,,,0.20,meteohub,2013-09-02 02:22:00,
2013-09-01 22:27:00,68.9,68.0,28.19,South,180,2.0,0.0,97,0.00,,,0.20,meteohub,2013-09-02 02:27:00,
2013-09-01 22:32:00,68.9,68.0,28.19,SE,135,2.0,2.0,97,0.00,,,0.20,meteohub,2013-09-02 02:32:00,
2013-09-01 22:37:00,68.9,68.0,28.19,SE,135,1.0,2.0,97,0.00,,,0.20,meteohub,2013-09-02 02:37:00,
2013-09-01 22:42:00,68.9,68.0,28.19,SE,135,0.0,2.0,97,0.00,,,0.20,meteohub,2013-09-02 02:42:00,
2013-09-01 22:47:00,68.9,68.0,28.19,East,90,1.0,2.0,97,0.00,,,0.20,meteohub,2013-09-02 02:47:00,
2013-09-01 22:52:00,68.7,67.8,28.18,East,90,2.0,2.0,97,0.00,,,0.20,meteohub,2013-09-02 02:52:00,
2013-09-01 22:57:00,68.7,67.8,28.18,East,90,1.0,2.0,97,0.00,,,0.20,meteohub,2013-09-02 02:57:00,
2013-09-01 23:02:00,68.5,67.6,28.17,West,270,0.0,2.0,97,0.00,,,0.20,meteohub,2013-09-02 03:02:00,
2013-09-01 23:07:00,68.4,67.8,28.17,North,0,0.0,2.0,98,0.00,,,0.20,meteohub,2013-09-02 03:07:00,
2013-09-01 23:12:00,68.4,67.5,28.18,SW,225,1.0,2.0,97,0.00,,,0.20,meteohub,2013-09-02 03:12:00,
2013-09-01 23:17:00,68.2,67.3,28.18,SW,225,2.0,2.0,97,0.00,,,0.20,meteohub,2013-09-02 03:17:00,
2013-09-01 23:22:00,68.2,67.3,28.18,SW,225,1.0,2.0,97,0.00,,,0.20,meteohub,2013-09-02 03:22:00,
2013-09-01 23:27:00,68.2,67.6,28.17,South,180,0.0,2.0,98,0.00,,,0.20,meteohub,2013-09-02 03:27:00,
2013-09-01 23:32:00,68.0,67.5,28.18,North,0,0.0,2.0,98,0.00,,,0.20,meteohub,2013-09-02 03:32:00,
2013-09-01 23:37:00,68.0,67.1,28.17,SE,135,1.0,2.0,97,0.00,,,0.20,meteohub,2013-09-02 03:37:00,
2013-09-01 23:42:00,67.8,67.3,28.17,SW,225,1.0,2.0,98,0.00,,,0.20,meteohub,2013-09-02 03:42:00,
2013-09-01 23:47:00,67.6,67.3,28.17,South,180,2.0,2.0,99,0.00,,,0.20,meteohub,2013-09-02 03:47:00,
2013-09-01 23:52:00,67.6,67.3,28.17,South,180,1.0,2.0,99,0.00,,,0.20,meteohub,2013-09-02 03:52:00,
2013-09-01 23:57:00,67.6,67.3,28.17,West,270,0.0,2.0,99,0.00,,,0.20,meteohub,2013-09-02 03:57:00,